[[{"header":{"parameterUnit":"m.s-1","parameterCategory":1,"la1":30.2991,"la2":30.254,"lo1":-89.0895,"lo2":-89.0444,"dy":0.0017,"dx":0.0017,"nx":28,"ny":28,"refTime":"2025-07-18T21:00:00:Z","depth":0,"parameterNumber":2,"parameterNumberName":"U-component_of_WINDS"},"data":[0,0,0,0,0,0,0,0,0,0,0,0,0,0,0,0,0,0,0,0,0,0,0,0,0,0,0,0,0,0,0,0,0,0,0,0,0,0,0,0,0,0,0,0,0,0,0,0,0,0,0,0,0,0,0,0,0,0,2.4618,2.4619,0,2.4688,2.4689,2.4689,2.4649,2.4647,2.4645,2.4643,2.4711,2.4715,2.4719,0,0,0,0,0,0,0,0,0,0,0,0,0,2.4446,2.445,2.4618,2.4619,2.462,2.4688,2.4689,2.4689,2.4649,2.4647,2.4644,2.4642,2.471,2.4715,2.4719,0,0,0,0,0,0,0,0,0,0,0,0,0,2.4519,2.4451,2.4618,2.4608,2.4608,2.4687,2.4689,2.469,2.465,2.4647,2.4644,2.4641,2.4709,2.4714,2.472,2.4812,0,0,2.4736,2.4739,0,0,0,0,0,0,0,0,2.4515,2.4525,2.4609,2.4609,2.4609,2.4657,2.4653,2.4731,2.465,2.4634,2.4643,2.464,2.4695,2.4702,2.4721,2.4815,2.4818,2.4737,2.474,2.4742,2.4744,0,0,0,0,0,0,0,2.451,2.4522,2.4646,2.461,2.461,2.4599,2.4606,2.4667,2.468,2.4635,2.4632,2.4641,2.4695,2.4716,2.4723,2.4819,2.4737,2.4741,2.4745,2.4747,2.4989,2.4992,0,0,0,0,0,0,2.4506,2.4518,2.4643,2.4648,2.4554,2.4604,2.4612,2.4644,2.4679,2.4682,2.4644,2.4639,2.4708,2.4716,2.4725,2.4833,2.4742,2.4747,2.4751,2.4986,2.499,2.4993,0,0,0,0,0,0,2.4502,2.4518,2.4641,2.4582,2.4597,2.461,2.4647,2.4647,2.4668,2.4686,2.4688,2.4663,2.4706,2.4717,2.479,2.4835,2.475,2.4755,2.4982,2.4987,2.4991,2.5051,0,0,0,0,0,0,2.4498,2.4516,2.4553,2.4583,2.46,2.4706,2.465,2.4651,2.4678,2.4673,2.4705,2.4707,2.4705,2.4782,2.4796,2.4841,2.4759,2.4978,2.4984,2.499,2.5045,2.5057,2.5068,0,0,0,0,0,2.4492,2.4567,2.4555,2.457,2.4646,2.4709,2.4718,2.4715,2.4682,2.4718,2.4729,2.4706,2.4828,2.479,2.4805,2.4852,2.4975,2.4983,2.499,2.504,2.5055,2.5067,0,0,0,0,0,0,2.4541,2.4571,2.4558,2.4646,2.4675,2.4702,2.4747,2.4731,2.477,2.4763,2.4756,2.4764,2.4839,2.4853,2.481,2.4942,2.4896,2.4907,2.493,2.4944,2.4955,2.4949,2.4764,0,0,0,0,0,2.4562,2.4612,2.4635,2.471,2.4725,2.4734,2.4761,2.4756,2.4786,2.4798,2.4814,2.4843,2.4887,2.4917,2.4959,2.5048,2.5052,2.5087,2.5099,2.5108,2.5116,2.5161,2.5176,2.5016,2.5016,2.5016,0,0,2.4606,2.4628,2.466,2.472,2.4742,2.4792,2.4744,2.48,2.4836,2.4806,2.4875,2.4888,2.492,2.5,2.5036,2.5014,2.5161,2.5117,2.5124,2.5127,2.517,2.5185,2.5198,2.5021,2.502,2.502,0,0,2.4711,2.4734,2.4798,2.4821,2.4855,2.486,2.4876,2.4905,2.4912,2.4982,2.496,2.5002,2.508,2.5102,2.5124,2.5236,2.5216,2.525,2.5308,2.5352,2.5364,2.5375,2.5413,2.5426,2.5259,2.5259,2.5259,0,2.4761,2.4836,2.4832,2.4889,2.4915,2.489,2.4953,2.4976,2.5022,2.5039,2.5014,2.5109,2.5129,2.5213,2.524,2.526,2.5275,2.5246,2.5363,2.5374,2.5384,2.542,2.5434,2.5263,2.5262,2.5262,2.5262,0,2.4894,2.4946,2.4993,2.5039,2.507,2.513,2.5133,2.5165,2.5157,2.5164,2.5234,2.5257,2.5302,2.5322,2.5315,2.5405,2.5389,2.5364,2.5318,2.5403,2.5436,2.545,2.5268,2.5267,2.5266,2.5265,0,0,2.5031,2.5073,2.509,2.5109,2.5145,2.5184,2.5242,2.5287,2.5313,2.5346,2.5392,2.5457,2.5434,2.5458,2.5453,2.5492,2.5576,2.5462,2.5462,2.548,2.5672,2.5689,2.5705,2.5563,2.5566,2.5568,2.5669,0,2.5136,2.5237,2.5235,2.5328,2.5375,2.5352,2.5402,2.5428,2.5436,2.5476,2.5484,2.5529,2.5496,2.551,2.5548,2.5558,2.5614,2.5551,2.5604,2.5606,2.5594,2.5723,2.5742,2.5836,2.5682,2.5684,2.5686,0,2.5272,2.5309,2.5407,2.5433,2.5453,2.5498,2.5537,2.5576,2.5605,2.5607,2.5635,2.5623,2.5679,2.5633,2.5709,2.5666,2.5687,2.5695,2.5699,2.5702,2.5649,2.5727,2.5866,2.5879,2.5707,2.5705,2.5703,0,2.5358,2.5433,2.55,2.5518,2.5551,2.5583,2.5598,2.5624,2.565,2.5685,2.5701,2.5742,2.5763,2.5794,2.5792,2.576,2.5868,2.5823,2.587,2.587,2.5892,2.589,2.6034,2.5911,2.5911,2.591,2.591,0,2.5474,2.5534,2.5539,2.558,2.5646,2.5643,2.5708,2.572,2.5742,2.5784,2.5767,2.5807,2.5804,2.5843,2.5843,2.5904,2.5914,2.5916,2.5915,2.5917,2.5916,2.5929,2.5921,2.5914,2.5913,2.5913,2.5912,0,2.5581,2.5587,2.5659,2.5685,2.5693,2.574,2.5761,2.5799,2.5805,2.5858,2.587,2.588,2.5925,2.5928,2.598,2.5979,2.6053,2.6046,2.6043,2.6041,2.6087,2.6082,2.6242,2.6262,2.6128,2.6129,2.613,0,2.5653,2.5699,2.573,2.5757,2.5774,2.5818,2.5844,2.5842,2.587,2.5905,2.5939,2.5982,2.6017,2.609,2.61,2.6139,2.6131,2.6185,2.6137,2.6136,2.6129,2.6125,2.6128,2.6193,2.6195,2.6196,2.6197,0,2.578,2.578,2.582,2.586,2.5892,2.5924,2.5953,2.5976,2.5977,2.6009,2.6055,2.6082,2.6135,2.6177,2.6215,2.6229,2.6212,2.6212,2.6225,2.6225,2.6221,2.6221,2.6066,2.6208,2.6207,2.6206,2.6206,2.6205,2.587,2.5908,2.5935,2.5979,2.6001,2.6028,2.6065,2.6076,2.6114,2.6157,2.6154,2.6204,2.6229,2.6279,2.6296,2.6334,2.6315,2.6334,2.6338,2.6342,2.6346,2.6217,2.6341,2.6341,2.634,2.634,2.634,0,2.5993,2.6009,2.605,2.6091,2.6125,2.6108,2.6139,2.6168,2.6213,2.6238,2.6272,2.6324,2.6365,2.6379,2.6418,2.6446,2.6439,2.6456,2.6452,2.6455,2.6362,2.6346,2.6461,2.6461,2.6461,2.646,2.646,2.646,2.6061,2.6124,2.6127,2.6201,2.6216,2.6266,2.6284,2.6309,2.6329,2.6388,2.6422,2.6431,2.6451,2.6491,2.6527,2.653,2.6544,2.6563,2.6563,2.6475,2.6462,2.6451,2.6435,2.6567,2.6567,2.6653,2.6654,2.6654]},{"header":{"parameterUnit":"m.s-1","parameterCategory":1,"la1":30.2991,"la2":30.254,"lo1":-89.0895,"lo2":-89.0444,"dy":0.0017,"dx":0.0017,"nx":28,"ny":28,"refTime":"2025-07-18T21:00:00:Z","depth":0,"parameterNumber":3,"parameterNumberName":"V-component_of_WINDS"},"data":[0,0,0,0,0,0,0,0,0,0,0,0,0,0,0,0,0,0,0,0,0,0,0,0,0,0,0,0,0,0,0,0,0,0,0,0,0,0,0,0,0,0,0,0,0,0,0,0,0,0,0,0,0,0,0,0,0,0,1.7989,1.7991,0,1.8183,1.8185,1.8187,1.8195,1.8193,1.819,1.8188,1.8393,1.84,1.8407,0,0,0,0,0,0,0,0,0,0,0,0,0,1.7627,1.7634,1.7988,1.7991,1.7993,1.8183,1.8185,1.8188,1.8195,1.8193,1.819,1.8187,1.839,1.8399,1.8408,0,0,0,0,0,0,0,0,0,0,0,0,0,1.7799,1.7636,1.7988,1.802,1.8024,1.8182,1.8185,1.8189,1.8196,1.8193,1.8189,1.8186,1.8387,1.8398,1.8409,1.855,0,0,1.8444,1.8449,0,0,0,0,0,0,0,0,1.779,1.7813,1.8013,1.8018,1.8023,1.8161,1.8133,1.831,1.8197,1.8131,1.8188,1.8184,1.8319,1.8335,1.838,1.856,1.8569,1.8445,1.8452,1.8457,1.846,0,0,0,0,0,0,0,1.7778,1.7804,1.8066,1.8015,1.8022,1.8026,1.8046,1.8167,1.8242,1.8137,1.8137,1.816,1.8321,1.8369,1.8385,1.8572,1.8445,1.8455,1.8462,1.8467,1.8877,1.8881,0,0,0,0,0,0,1.7759,1.7794,1.8059,1.8071,1.7895,1.8035,1.8058,1.8121,1.8241,1.8256,1.8163,1.816,1.8351,1.8371,1.8392,1.8565,1.8457,1.8468,1.8474,1.8873,1.8878,1.8883,0,0,0,0,0,0,1.7751,1.7782,1.8051,1.7933,1.7968,1.8045,1.8115,1.8126,1.8174,1.8261,1.8275,1.8198,1.8349,1.8376,1.8511,1.8572,1.8473,1.8483,1.8868,1.8875,1.888,1.8913,0,0,0,0,0,0,1.7741,1.778,1.7833,1.7934,1.7974,1.8166,1.8119,1.8133,1.8193,1.8191,1.8297,1.8312,1.8348,1.8493,1.8522,1.8586,1.8492,1.8863,1.8871,1.8878,1.8907,1.8919,1.893,0,0,0,0,0,1.7728,1.7836,1.7836,1.7868,1.8042,1.8169,1.8192,1.8231,1.8198,1.8253,1.8309,1.8308,1.8561,1.8507,1.8539,1.8608,1.886,1.8869,1.8878,1.8901,1.8917,1.893,0,0,0,0,0,0,1.7742,1.7849,1.7851,1.7994,1.8072,1.817,1.8241,1.8246,1.8336,1.8331,1.8376,1.84,1.8534,1.8585,1.8523,1.8751,1.8707,1.8723,1.8713,1.8729,1.874,1.8726,1.8502,0,0,0,0,0,1.7761,1.7854,1.7943,1.8061,1.81,1.8164,1.822,1.8243,1.8327,1.836,1.8426,1.8508,1.8606,1.867,1.8765,1.8913,1.8937,1.8976,1.8988,1.8997,1.9011,1.9094,1.9113,1.8912,1.8912,1.8912,0,0,1.7803,1.7873,1.7929,1.8066,1.8129,1.8225,1.8192,1.8295,1.8368,1.8377,1.8508,1.8559,1.8654,1.8796,1.8862,1.8842,1.9071,1.9009,1.9015,1.9025,1.9105,1.9124,1.9141,1.8919,1.8917,1.8917,0,0,1.7928,1.799,1.8095,1.8158,1.8254,1.8295,1.832,1.8417,1.8451,1.8583,1.8592,1.8679,1.8846,1.8914,1.897,1.9119,1.9123,1.9149,1.9211,1.9291,1.9307,1.9321,1.9376,1.9394,1.9162,1.9162,1.9162,0,1.7968,1.8112,1.8149,1.8252,1.8312,1.8323,1.843,1.8491,1.8613,1.8655,1.863,1.8841,1.8905,1.9063,1.91,1.9144,1.9176,1.9138,1.9301,1.9316,1.933,1.9382,1.9403,1.9165,1.9165,1.9164,1.9164,0,1.8158,1.8258,1.8331,1.8447,1.8515,1.862,1.8674,1.8739,1.8755,1.88,1.8934,1.9011,1.9122,1.9161,1.9179,1.9322,1.9307,1.9291,1.9248,1.9351,1.9401,1.9421,1.9169,1.9168,1.9167,1.9166,0,0,1.8299,1.8432,1.8459,1.8511,1.8617,1.8696,1.8801,1.8908,1.8963,1.9047,1.9137,1.9278,1.9264,1.9328,1.9353,1.9423,1.9538,1.9399,1.9402,1.9423,1.9701,1.9713,1.9736,1.9539,1.9543,1.9547,1.9694,0,1.8437,1.8623,1.8658,1.8821,1.8915,1.8925,1.9017,1.9093,1.9137,1.9223,1.9272,1.9372,1.9345,1.9384,1.9453,1.9509,1.9594,1.9499,1.9626,1.963,1.9603,1.9762,1.9775,1.991,1.9713,1.9717,1.9719,0,1.8623,1.8709,1.8881,1.8973,1.9014,1.9096,1.9196,1.9278,1.9364,1.9391,1.9461,1.9479,1.959,1.954,1.9695,1.9629,1.9683,1.9718,1.9724,1.9739,1.9682,1.9782,1.9954,1.9975,1.975,1.9748,1.9745,0,1.871,1.8869,1.8992,1.9037,1.9148,1.9205,1.9254,1.9336,1.9398,1.9486,1.9527,1.9627,1.9683,1.9761,1.9805,1.9764,1.9957,1.9911,1.9984,1.9984,2.0026,2.0023,2.0211,2.0058,2.0058,2.0058,2.0057,0,1.8861,1.8966,1.9033,1.9109,1.9227,1.9267,1.9383,1.9432,1.9504,1.9591,1.9607,1.9688,1.9741,1.983,1.9866,1.9989,2.0014,2.004,2.0049,2.004,2.0036,2.0077,2.0069,2.0063,2.0062,2.0061,2.006,0,1.8979,1.9027,1.9163,1.9256,1.9282,1.9365,1.9445,1.952,1.9563,1.9673,1.9701,1.9769,1.9875,1.9926,2.0058,2.0082,2.0222,2.0224,2.0193,2.0196,2.0268,2.0261,2.0489,2.0521,2.0346,2.0348,2.0349,0,1.9072,1.9153,1.9254,1.9312,1.9362,1.9456,1.9519,1.9561,1.9626,1.9729,1.9792,1.9898,1.9985,2.0154,2.0216,2.0317,2.0322,2.0395,2.0338,2.0326,2.0325,2.032,2.0329,2.0406,2.0408,2.0409,2.041,0,1.9234,1.9254,1.9342,1.944,1.9513,1.9592,1.967,1.9717,1.9772,1.9845,1.9952,2.0019,2.0153,2.0258,2.0363,2.0416,2.0423,2.0428,2.045,2.0443,2.0422,2.0435,2.0222,2.0423,2.0422,2.0421,2.042,2.0419,1.9344,1.9416,1.9498,1.9596,1.9659,1.9731,1.9806,1.9857,1.9947,2.0058,2.0078,2.0192,2.0276,2.0418,2.0473,2.0564,2.0548,2.0581,2.0589,2.0597,2.0601,2.0406,2.0583,2.0583,2.0583,2.0583,2.0583,0,1.9507,1.956,1.965,1.9757,1.9835,1.9832,1.9918,1.9984,2.0083,2.016,2.0245,2.0369,2.0471,2.0541,2.0645,2.0704,2.071,2.073,2.0727,2.0739,2.0609,2.058,2.0724,2.0724,2.0724,2.0723,2.0723,2.0723,1.9601,1.9723,1.9753,1.9906,1.9959,2.007,2.0119,2.0186,2.0248,2.0384,2.0469,2.0513,2.0587,2.0697,2.0791,2.0809,2.0847,2.0868,2.0885,2.0763,2.0748,2.0734,2.0707,2.0875,2.0875,2.1008,2.1009,2.101]}]]